Location: Mercogliano
(40.9167°N, 14.7333°E)
Time: 05:07:01
(UTC+00:00)

ATLAS 3B R/B - Pass Details

Date: 18 September 2020
Orbit: 1016 x 1179 km, 63.8° (Epoch: 04 October)

Event Time Altitude Azimuth Distance (km) Brightness Sun altitude
Rises 19:33:43 0° 330° (NNW) 3,823 6.5 -27.8°
Reaches altitude 10° 19:36:47 10° 342° (NNW) 2,890 5.5 -28.3°
Maximum altitude 19:42:31 28° 39° (NE) 1,933 3.9 -29.2°
Enters shadow 19:42:49 27° 44° (NE) 1,938 3.9 -29.2°
